This is the latest recevied weather packets stored in our database for station/object KE6LRO. If no packets are shown the sender has not sent any weather packets the latest 10 day(s).
| Time | Temp. | Humidity | Pressure | Rain* | Wind** | Luminosity | Snow |
|---|---|---|---|---|---|---|---|
| 1777742129 | 16.67° C | 40% | 1022.6 hPa | 0 mm | - | 590 W/m² | - |
| 1777741821 | 16.67° C | 42% | 1022.5 hPa | 0 mm | - | 626 W/m² | - |
| 1777741517 | 16.67° C | 41% | 1022.5 hPa | 0 mm | - | 640 W/m² | - |
| 1777741209 | 16.11° C | 44% | 1022.4 hPa | 0 mm | - | 557 W/m² | - |
| 1777740906 | 15.56° C | 43% | 1022.7 hPa | 0 mm | - | 457 W/m² | - |
| 1777740603 | 16.11° C | 45% | 1022.4 hPa | 0 mm | - | 503 W/m² | - |
| 1777740299 | 15.56° C | 45% | 1022.6 hPa | 0 mm | - | 534 W/m² | - |
| 1777739996 | 15° C | 44% | 1022.8 hPa | 0 mm | - | 464 W/m² | - |
| 1777739691 | 15° C | 46% | 1022.7 hPa | 0 mm | - | 484 W/m² | - |
| 1777739389 | 14.44° C | 49% | 1022.6 hPa | 0 mm | - | 498 W/m² | - |
| 1777739086 | 13.89° C | 48% | 1022.7 hPa | 0 mm | - | 522 W/m² | - |
| 1777738783 | 13.89° C | 49% | 1022.8 hPa | 0 mm | - | 493 W/m² | - |
| 1777738479 | 13.33° C | 55% | 1023.1 hPa | 0 mm | - | 486 W/m² | - |
| 1777738177 | 12.78° C | 52% | 1022.8 hPa | 0 mm | - | 334 W/m² | - |
| 1777737874 | 12.22° C | 54% | 1023.2 hPa | 0 mm | - | 391 W/m² | - |
| 1777737574 | 11.67° C | 58% | 1023.2 hPa | 0 mm | - | 322 W/m² | - |
| 1777737272 | 11.11° C | 57% | 1023.2 hPa | 0 mm | - | 398 W/m² | - |
| 1777736967 | 11.11° C | 58% | 1023.1 hPa | 0 mm | - | 401 W/m² | - |
| 1777736066 | 10.56° C | 60% | 1023.2 hPa | 0 mm | - | 348 W/m² | - |
| 1777735763 | 10° C | 61% | 1023.2 hPa | 0 mm | - | 298 W/m² | - |
| 1777735461 | 9.44° C | 62% | 1023.4 hPa | 0 mm | - | 297 W/m² | - |
| 1777735159 | 9.44° C | 63% | 1023.3 hPa | 0 mm | - | 256 W/m² | - |
| 1777734855 | 8.33° C | 71% | 1023.3 hPa | 0 mm | - | 271 W/m² | - |
| 1777734553 | 8.33° C | 68% | 1023.4 hPa | 0 mm | - | 231 W/m² | - |
| 1777734249 | 8.89° C | 66% | 1023.4 hPa | 0 mm | - | 236 W/m² | - |
* Rain latest hour (hover to see other rain measurements)
** Current wind speed in m/s (hover to see current wind gust speed)